Overview Statistics Trail Chart Weather Telemetry Raw packets
 

This is the latest recevied weather packets stored in our database for station/object OM6ACB-6. If no packets are shown the sender has not sent any weather packets the latest 10 day(s).

<< 18 19 20 21 22 23 24 >>
Time Temp. Humidity Pressure Rain* Wind** Luminosity Snow
1788377657 12.78° C 26% 1022.7 hPa 0 mm - - -
1788377056 12.78° C 26% 1022.9 hPa 0 mm - - -
1788376456 12.78° C 26% 1022.9 hPa 0 mm - - -
1788375856 13.89° C 26% 1023 hPa 0 mm - - -
1788375256 14.44° C 25% 1023.2 hPa 0 mm - - -
1788374655 14.44° C 25% 1023.1 hPa 0 mm - - -
1788374058 14.44° C 25% 1023 hPa 0 mm - - -
1788373455 15° C 25% 1023.1 hPa 0 mm - - -
1788372855 15° C 25% 1023 hPa 0 mm - - -
1788372254 15.56° C 25% 1023 hPa 0 mm - - -
1788371654 16.11° C 24% 1022.9 hPa 0 mm - - -
1788371054 16.67° C 24% 1022.9 hPa 0 mm - - -
1788370453 17.22° C 24% 1023 hPa 0 mm - - -
1788369853 17.78° C 24% 1023.1 hPa 0 mm - - -
1788369253 17.78° C 24% 1023.1 hPa 0 mm - - -
1788368652 18.33° C 23% 1023.3 hPa 0 mm - - -
1788368052 19.44° C 23% 1023.4 hPa 0 mm - - -
1788367452 20° C 22% 1023.5 hPa 0 mm - - -
1788366852 20.56° C 22% 1023.5 hPa 0 mm - - -
1788366251 21.11° C 22% 1023.7 hPa 0 mm - - -
1788365651 21.67° C 22% 1023.8 hPa 0 mm - - -
1788365051 22.78° C 21% 1023.9 hPa 0 mm - - -
1788364450 22.78° C 21% 1024 hPa 0 mm - - -
1788363850 22.78° C 21% 1024.1 hPa 0 mm - - -
1788363252 23.33° C 21% 1024.2 hPa 0 mm - - -

* Rain latest hour (hover to see other rain measurements)
** Current wind speed in m/s (hover to see current wind gust speed)